When you browse on this site, cookies collect data to enhance your experience and personalize the content and advertising you see.
Visit our Privacy Policy to learn more. By continuing to use the site, you agree to this use of cookies and data.
  • In Hungary
  • List of Countries
  • For 7 days
  • Water Temperature
  • Satellite Maps
  • Weather Map
  • News
  • Weather Widgets
  • user-avatar
    Login

    Hourly Weather Maracay

    Today, 23 January, Wednesday

    Time Temperature Precipitation Wind Pressure Humidity
    00:00 +22°C° 0 mm 1 mps 713 mmHg 91%
    01:00 +21°C° 0 mm 1 mps 713 mmHg 92%
    02:00 +21°C° 0 mm 1 mps 713 mmHg 92%
    03:00 +21°C° 0 mm 1 mps 713 mmHg 92%
    04:00 +21°C° 0 mm 1 mps 713 mmHg 92%
    05:00 +22°C° 0 mm 1 mps 713 mmHg 89%
    06:00 +22°C° 0 mm 1 mps 714 mmHg 86%
    07:00 +23°C° 0 mm 1 mps 714 mmHg 83%
    08:00 +25°C° 0 mm 1 mps 715 mmHg 74%
    09:00 +27°C° 0 mm 2 mps 715 mmHg 64%
    10:00 +29°C° 0 mm 2 mps 715 mmHg 54%
    11:00 +30°C° 0 mm 2 mps 715 mmHg 53%
    12:00 +30°C° 0 mm 2 mps 714 mmHg 51%
    13:00 +30°C° 0 mm 2 mps 713 mmHg 49%
    14:00 +30°C° 0 mm 2 mps 713 mmHg 52%
    15:00 +29°C° 0 mm 2 mps 712 mmHg 55%
    16:00 +29°C° 0 mm 2 mps 712 mmHg 57%
    17:00 +27°C° 0 mm 2 mps 712 mmHg 65%
    18:00 +25°C° 0 mm 2 mps 712 mmHg 73%
    19:00 +24°C° 0 mm 2 mps 712 mmHg 81%
    20:00 +23°C° 0 mm 1 mps 712 mmHg 83%
    21:00 +23°C° 0 mm 1 mps 712 mmHg 85%
    22:00 +22°C° 0 mm 1 mps 713 mmHg 87%
    23:00 +22°C° 0 mm 1 mps 712 mmHg 88%

    Tomorrow, 24 January, Thursday

    Time Temperature Precipitation Wind Pressure Humidity
    00:00 +22°C° 0 mm 1 mps 712 mmHg 88%
    01:00 +22°C° 0 mm 1 mps 712 mmHg 89%
    02:00 +22°C° 0 mm 1 mps 712 mmHg 89%
    03:00 +21°C° 0 mm 1 mps 712 mmHg 88%
    04:00 +21°C° 0 mm 1 mps 712 mmHg 88%
    05:00 +22°C° 0 mm 1 mps 712 mmHg 86%
    06:00 +22°C° 0 mm 1 mps 713 mmHg 83%
    07:00 +23°C° 0 mm 1 mps 713 mmHg 80%
    08:00 +25°C° 0 mm 1 mps 714 mmHg 71%
    09:00 +27°C° 0 mm 1 mps 714 mmHg 61%
    10:00 +30°C° 0 mm 1 mps 715 mmHg 52%
    11:00 +31°C° 0 mm 2 mps 714 mmHg 48%
    12:00 +32°C° 0 mm 2 mps 713 mmHg 45%
    13:00 +34°C° 0 mm 2 mps 713 mmHg 42%
    14:00 +32°C° 0 mm 2 mps 712 mmHg 44%
    15:00 +31°C° 0 mm 2 mps 711 mmHg 47%
    16:00 +30°C° 0 mm 2 mps 711 mmHg 50%
    17:00 +28°C° 0 mm 2 mps 711 mmHg 59%
    18:00 +26°C° 0 mm 2 mps 711 mmHg 69%
    19:00 +24°C° 0 mm 1 mps 711 mmHg 78%
    20:00 +23°C° 0 mm 1 mps 712 mmHg 81%
    21:00 +23°C° 0 mm 1 mps 712 mmHg 83%
    22:00 +22°C° 0 mm 1 mps 712 mmHg 86%
    23:00 +22°C° 0 mm 1 mps 712 mmHg 87%

    Day after tomorrow, 25 January, Friday

    Time Temperature Precipitation Wind Pressure Humidity
    00:00 +22°C° 0 mm 1 mps 712 mmHg 88%
    01:00 +22°C° 0 mm 1 mps 712 mmHg 88%
    02:00 +21°C° 0 mm 1 mps 711 mmHg 88%
    03:00 +21°C° 0 mm 1 mps 711 mmHg 88%
    04:00 +21°C° 0 mm 1 mps 711 mmHg 88%
    05:00 +22°C° 0 mm 1 mps 712 mmHg 85%
    06:00 +22°C° 0 mm 1 mps 712 mmHg 82%
    07:00 +23°C° 0 mm 1 mps 713 mmHg 79%
    08:00 +26°C° 0 mm 1 mps 714 mmHg 68%
    09:00 +28°C° 0 mm 1 mps 714 mmHg 58%
    10:00 +31°C° 0 mm 1 mps 715 mmHg 47%
    11:00 +32°C° 0 mm 1 mps 714 mmHg 45%
    12:00 +33°C° 0 mm 1 mps 713 mmHg 43%
    13:00 +33°C° 0 mm 1 mps 712 mmHg 41%
    14:00 +32°C° 0 mm 2 mps 711 mmHg 45%
    15:00 +31°C° 0 mm 2 mps 711 mmHg 50%
    16:00 +30°C° 0 mm 2 mps 710 mmHg 54%
    17:00 +28°C° 0 mm 2 mps 710 mmHg 63%
    18:00 +26°C° 0 mm 2 mps 710 mmHg 73%
    19:00 +24°C° 0 mm 1 mps 710 mmHg 82%
    20:00 +23°C° 0 mm 1 mps 711 mmHg 84%
    21:00 +23°C° 0 mm 1 mps 711 mmHg 86%
    22:00 +23°C° 0 mm 1 mps 712 mmHg 88%
    23:00 +22°C° 0 mm 1 mps 711 mmHg 89%

    26 January, Saturday

    Time Temperature Precipitation Wind Pressure Humidity
    00:00 +22°C° 0 mm 1 mps 711 mmHg 90%
    01:00 +21°C° 0 mm 1 mps 711 mmHg 90%
    02:00 +21°C° 0 mm 1 mps 711 mmHg 90%
    03:00 +21°C° 0 mm 1 mps 711 mmHg 90%
    04:00 +21°C° 0 mm 1 mps 710 mmHg 90%
    05:00 +21°C° 0 mm 1 mps 711 mmHg 86%
    06:00 +22°C° 0 mm 1 mps 712 mmHg 82%
    07:00 +23°C° 0 mm 1 mps 713 mmHg 79%
    08:00 +25°C° 0 mm 1 mps 713 mmHg 68%
    09:00 +28°C° 0 mm 1 mps 714 mmHg 56%
    10:00 +31°C° 0 mm 1 mps 714 mmHg 45%
    11:00 +32°C° 0 mm 1 mps 713 mmHg 44%
    12:00 +32°C° 0 mm 1 mps 712 mmHg 42%
    13:00 +33°C° 0 mm 1 mps 711 mmHg 41%
    14:00 +32°C° 0 mm 2 mps 711 mmHg 44%
    15:00 +31°C° 0 mm 2 mps 710 mmHg 48%
    16:00 +30°C° 0 mm 2 mps 709 mmHg 51%
    17:00 +28°C° 0 mm 2 mps 710 mmHg 61%
    18:00 +26°C° 0 mm 2 mps 710 mmHg 72%
    19:00 +24°C° 0 mm 2 mps 710 mmHg 82%
    20:00 +24°C° 0 mm 2 mps 710 mmHg 83%
    21:00 +23°C° 0 mm 1 mps 711 mmHg 85%
    22:00 +23°C° 0 mm 1 mps 711 mmHg 87%
    23:00 +23°C° 0 mm 1 mps 711 mmHg 88%

    27 January, Sunday

    Time Temperature Precipitation Wind Pressure Humidity
    00:00 +22°C° 0 mm 1 mps 711 mmHg 89%
    01:00 +22°C° 0 mm 1 mps 710 mmHg 90%
    02:00 +22°C° 0 mm 1 mps 710 mmHg 90%
    03:00 +22°C° 0 mm 1 mps 710 mmHg 91%
    04:00 +22°C° 0 mm 1 mps 710 mmHg 91%
    05:00 +22°C° 0 mm 1 mps 711 mmHg 87%
    06:00 +23°C° 0 mm 1 mps 711 mmHg 84%
    07:00 +23°C° 0 mm 1 mps 712 mmHg 80%
    08:00 +26°C° 0 mm 1 mps 712 mmHg 69%
    09:00 +28°C° 0 mm 1 mps 713 mmHg 58%
    10:00 +31°C° 0 mm 2 mps 713 mmHg 47%
    11:00 +32°C° 0 mm 1 mps 713 mmHg 45%
    12:00 +33°C° 0 mm 1 mps 712 mmHg 43%
    13:00 +34°C° 0 mm 1 mps 711 mmHg 41%
    14:00 +33°C° 0 mm 1 mps 710 mmHg 45%
    15:00 +31°C° 0 mm 2 mps 710 mmHg 49%
    16:00 +30°C° 0 mm 2 mps 709 mmHg 52%
    17:00 +28°C° 0 mm 2 mps 709 mmHg 62%
    18:00 +26°C° 0 mm 2 mps 710 mmHg 72%
    19:00 +24°C° 0 mm 1 mps 710 mmHg 82%
    20:00 +24°C° 0 mm 1 mps 710 mmHg 85%
    21:00 +24°C° 0 mm 1 mps 711 mmHg 87%
    22:00 +23°C° 0 mm 1 mps 711 mmHg 89%
    23:00 +24°C° 0.1 mm 1 mps 711 mmHg 88%

    28 January, Monday

    Time Temperature Precipitation Wind Pressure Humidity
    00:00 +24°C° 0.1 mm 1 mps 711 mmHg 86%
    01:00 +24°C° 0.1 mm 1 mps 710 mmHg 85%
    02:00 +23°C° 0 mm 1 mps 710 mmHg 86%
    03:00 +23°C° 0 mm 1 mps 710 mmHg 87%
    04:00 +22°C° 0 mm 1 mps 710 mmHg 89%
    05:00 +23°C° 0 mm 1 mps 710 mmHg 86%
    06:00 +23°C° 0 mm 1 mps 711 mmHg 83%
    07:00 +24°C° 0 mm 1 mps 712 mmHg 80%
    08:00 +26°C° 0 mm 1 mps 712 mmHg 69%
    09:00 +29°C° 0 mm 1 mps 713 mmHg 58%
    10:00 +31°C° 0 mm 1 mps 713 mmHg 47%
    11:00 +32°C° 0 mm 1 mps 712 mmHg 46%
    12:00 +32°C° 0 mm 1 mps 711 mmHg 46%
    13:00 +33°C° 0 mm 1 mps 711 mmHg 45%
    14:00 +31°C° 0 mm 1 mps 710 mmHg 50%
    15:00 +30°C° 0 mm 1 mps 709 mmHg 56%
    16:00 +28°C° 0 mm 1 mps 709 mmHg 61%
    17:00 +27°C° 0 mm 1 mps 709 mmHg 68%
    18:00 +26°C° 0 mm 1 mps 709 mmHg 74%
    19:00 +24°C° 0 mm 1 mps 709 mmHg 81%
    20:00 +24°C° 0 mm 1 mps 710 mmHg 84%
    21:00 +23°C° 0 mm 1 mps 710 mmHg 87%
    22:00 +23°C° 0 mm 1 mps 710 mmHg 90%
    23:00 +23°C° 0 mm 1 mps 710 mmHg 90%
    Show more